DECAYED

STARLINK-1312, 45398 (Decayed)

Orbit data source: Space-Track

STARLINK-1312, 45398 was a payload satellite owned by SpaceX/Seattle (US) in LEO that was launched on Wed, 18 Mar 2020 UTC via an FALCON 9 launch vehicle from the Air Force Eastern Test Range (AFETR). Payload-class satellites include a variety of spacecraft equipped with specific instruments for various scientific and technological missions. These include communications satellites like Starlink; space stations such as the ISS; scientific satellites like the Hubble; Earth observation satellites from companies like Planet Labs, Umbra, and HawkEye 360; GPS; miniature CubeSats for education and research; and military/defense satellites.

Not visible in the next 10 days
Identifier
45398, 2020-019AQ
Orbit
Decayed
Country
Flag of USUS
Related business
Manufacturer
SpaceX/Seattle
Mission
Decayed Commercial Communications
Bus & Motor
STARLINK, Unknown motor
Mass
260 kg wet, ~248 kg dry
Launch date (UTC)
2020-03-18 (7 years ago)
Launch vehicle
FALCON 9
Launch site
Air Force Eastern Test Range (AFETR)
Object type
Payload
Rocket body
Debris
Shape & HBR
Box + 1 Pan, 10.1 m
Radar Cross Section
13.562 m², Large (>1 m²)

Expand to show TLE details & history
Last TLE update: 10 months ago

TLE from 10 months ago
0 STARLINK-1312
1 45398U 20019AQ  25314.32981976  .07325008  12167-4  95038-3 0  9995
2 45398  53.0283 264.2709 0004161 208.2271 151.8548 16.34946255312582
Epoch: 2025-11-10T07:54Z
TLE epoch observation values (Epoch: 2025-11-10T07:54:56.427Z)
Latitude
-0.00002°
Longitude
95.80349°
Altitude
182.612 km
Speed
7.797 km/s
True Right ascension
17h 37m 05s
True Declination
0° 00' 00"
Sunlit
Object was in daylight at epoch
Visualization orbit readout
Latitude
Unknown
Longitude
Unknown
Altitude
Unknown
Speed
Unknown
Apparent Right ascension
Unknown
Apparent Declination
Unknown
Sunlit
N/A
Visualization observer readout
Local Sidereal Time
07:37:09
Azimuth
Unknown
Elevation
Unknown
Doppler factor
Unknown
Orbital elements
Apogee altitude
182.299 km
Perigee altitude
176.842 km
Semi-major axis
6,557.708 km
Eccentricity
0.00042
Inclination
53.0283°
RAAN
264.2709°
Arg. of periapsis
208.2271°
True anomaly
151.87728°
Mean anomaly
151.8548°
Eccentric anomaly
151.86604°
Mean motion
4.0871 °/min
Orbital period
88.08 mins
BSTAR
0.00095038
Loading maneuver chart data...
Computing Atmospheric mass density...

Documentation

Showing up to 5 results
|